• Join FlightAware (Why Join?)
  • Login
  • US Flag 
09:06AM EDT


 

Airport Tracker/Info


-or-


 

Live Flight TrackerFlight Track Log ✈ EJM685 ✈ 08-Jan-2014 ✈ KTEB - KBAF

Flight Track Log - Related Links

Times and Time Zones

All times are in EST time to prevent confusion due to time zone crossing. See the EJM685 flight status page for this flight to view local times or setup timezone preferences in your user account.

Time Position Orientation Groundspeed Altitude Reporting Facility
EST Latitude Longitude Course Direction KTS MPH feet Rate Location/Type
01:29PM 40.8333 -74.1000 255° West 175 201 1,500  Level New York TRACON
01:30PM 40.8167 -74.1833 255° West 206 237 4,200 2,220 Climbing New York TRACON
01:31PM 40.8333 -74.2333 294° West 237 273 6,000 900 Climbing New York TRACON
01:32PM 40.9167 -74.2167 North 269 310 6,100  Climbing New York TRACON
01:33PM 40.9833 -74.1833 21° North 260 299 6,000  Descending New York TRACON
01:34PM 41.0500 -74.1667 11° North 262 302 6,100 1,320 Climbing New York TRACON
01:35PM 41.1000 -74.1000 45° Northeast 290 334 8,700 1,980 Climbing New York TRACON
01:36PM 41.1333 -73.9833 69° East 344 396 10,100 660 Climbing New York TRACON
01:37PM 41.1833 -73.8500 63° Northeast 388 447 10,100  Level New York TRACON
01:38PM 41.2333 -73.7333 60° Northeast 391 450 10,100  Level New York TRACON
01:39PM 41.2667 -73.6000 72° East 383 441 10,100  Level New York TRACON
01:40PM 41.3500 -73.5000 42° Northeast 368 423 10,100  Level New York TRACON
01:41PM 41.4000 -73.4233 49° Northeast 367 422 10,100  Level Boston Center
01:42PM 41.4753 -73.3228 45° Northeast 369 425 10,100  Level Boston Center
01:43PM 41.5483 -73.2269 44° Northeast 368 423 10,100  Level Boston Center
01:43PM 41.5772 -73.1861 47° Northeast 366 421 10,100 -300 Level Boston Center
01:44PM 41.6203 -73.1317 43° Northeast 366 421 9,800 -300 Descending Boston Center
01:44PM 41.6519 -73.0953 41° Northeast 328 377 9,800 -600 Level Boston Center
01:45PM 41.6967 -73.0639 28° Northeast 292 336 9,200 -1,140 Descending Boston Center
01:45PM 41.7219 -73.0489 24° Northeast 271 312 8,700 -1,320 Descending Boston Center
01:46PM 41.7681 -73.0256 21° North 277 319 7,900 -1,440 Descending Boston Center
01:46PM 41.7969 -73.0097 22° Northeast 276 318 7,300 -780 Descending Boston Center
01:47PM 41.8381 -72.9878 22° Northeast 272 313 7,100 -240 Descending Boston Center
01:47PM 41.8675 -72.9717 22° Northeast 271 312 7,100 -240 Level Boston Center
01:48PM 41.9089 -72.9489 22° Northeast 274 315 6,900 -540 Descending Boston Center
01:48PM 41.9353 -72.9356 21° North 273 314 6,600 -900 Descending Boston Center
01:49PM 41.9825 -72.9106 21° North 263 303 6,000 -840 Descending Boston Center
01:49PM 42.0003 -72.9014 21° North 250 288 5,800 -720 Descending Boston Center
01:50PM 42.0428 -72.8789 21° North 234 269 5,300 -1,020 Descending Boston Center
01:50PM 42.0631 -72.8692 20° North 214 246 4,800 -900 Descending Boston Center
01:51PM 42.0983 -72.8544 17° North 211 243 4,400 -600 Descending Boston Center
01:51PM 42.1169 -72.8481 14° North 187 215 4,200 -240 Descending Boston Center
01:52PM 42.1467 -72.8342 19° North 182 209 4,200  Level Boston Center
01:52PM 42.1642 -72.8275 16° North 171 197 4,200 -300 Level Boston Center
01:53PM 42.1917 -72.8158 17° North 170 196 3,900 -540 Descending Boston Center
01:53PM 42.2069 -72.8083 20° North 163 188 3,700 -840 Descending Boston Center
01:54PM 42.2278 -72.7797 45° Northeast 160 184 3,100 -1,020 Descending Boston Center
01:54PM 42.2267 -72.7631 95° East 155 178 2,700 -1,140 Descending Boston Center
01:55PM 42.2222 -72.7239 99° East 151 174 1,900 -1,140 Descending Boston Center
01:55PM 42.2153 -72.7125 129° Southeast 136 157 1,500 -1,020 Descending Boston Center
01:56PM 42.1922 -72.7056 167° South 125 144 900 -840 Descending Boston Center
01:56PM 42.1833 -72.7097 199° South 117 135 700 -540 Descending Boston Center
01:57PM 42.1611 -72.7144 189° South 122 140 400 -480 Descending Boston Center